This is the latest recevied weather packets stored in our database for station/object VK2BNC-13. If no packets are shown the sender has not sent any weather packets the latest 10 day(s).
| Time | Temp. | Humidity | Pressure | Rain* | Wind** | Luminosity | Snow |
|---|---|---|---|---|---|---|---|
| 1777806926 | 16.67° C | 89% | - | 0 mm | - | - | - |
| 1777806024 | 16.67° C | 89% | - | 0 mm | - | - | - |
| 1777805124 | 17.22° C | 89% | - | 0 mm | - | - | - |
| 1777804224 | 17.22° C | 87% | - | 0 mm | - | - | - |
| 1777803324 | 17.78° C | 86% | - | 0 mm | - | - | - |
| 1777802425 | 18.33° C | 87% | - | 0 mm | - | - | - |
| 1777801525 | 18.33° C | 85% | - | 0 mm | - | - | - |
| 1777800624 | 18.89° C | 84% | - | 0 mm | - | - | - |
| 1777799724 | 19.44° C | 83% | - | 0 mm | - | - | - |
| 1777798824 | 20° C | 80% | - | 0 mm | - | - | - |
| 1777797924 | 20.56° C | 79% | - | 0 mm | - | - | - |
| 1777797023 | 20.56° C | 79% | - | 0 mm | - | - | - |
| 1777796124 | 21.11° C | 78% | - | 0 mm | - | - | - |
| 1777795221 | 21.67° C | 76% | - | 0 mm | - | - | - |
| 1777794320 | 22.22° C | 75% | - | 0 mm | - | - | - |
| 1777793419 | 22.22° C | 73% | - | 0 mm | - | - | - |
| 1777792519 | 22.78° C | 69% | - | 0 mm | - | - | - |
| 1777791614 | 23.89° C | 64% | - | 0 mm | - | - | - |
| 1777790714 | 23.89° C | 62% | - | 0 mm | - | - | - |
| 1777789814 | 24.44° C | 61% | - | 0 mm | - | - | - |
| 1777788914 | 25° C | 60% | - | 0 mm | - | - | - |
| 1777788015 | 25° C | 59% | - | 0 mm | - | - | - |
| 1777787110 | 25° C | 59% | - | 0 mm | - | - | - |
| 1777786210 | 25.56° C | 55% | - | 0 mm | - | - | - |
| 1777785308 | 25.56° C | 56% | - | 0 mm | - | - | - |
* Rain latest hour (hover to see other rain measurements)
** Current wind speed in m/s (hover to see current wind gust speed)